Wind_Speed
21 21 20 20 18 17 17 18 21 23 24 26 26 25 24 20 17 16 13 14 20 23 22 22 18 14 14 14 14 16 17 17 16 10 9 10 11 12 13 14 15 16 15 15 16 16 18 21 22 22 22 22 22 21 21 22 23 23 21 21 23 20 14 12 16 21 23 24 26 28 29 31 31 32 36 40 40 39 41 44 47 47 47 46 45 43 40
19 22 22 23 23 20 20 20 21 22 24 27 26 25 26 25 23 23 19 18 20 20 21 24 22 18 17 15 14 16 16 17 17 12 10 11 11 13 14 15 15 16 17 16 16 16 17 19 22 22 21 22 22 22 22 22 22 21 20 19 18 16 12 16 21 23 24 26 29 31 32 33 36 42 46 46 45 46 47 46 46 46 45 44 44 42 36
16 21 23 24 25 23 23 23 23 24 24 26 26 24 24 24 24 26 26 23 19 16 16 19 20 17 17 18 18 16 14 17 19 16 12 11 12 13 15 16 15 15 16 16 16 17 18 20 23 23 21 21 22 22 21 21 20 19 19 18 17 16 16 21 25 26 27 30 33 36 38 39 42 46 50 50 49 47 46 45 45 46 46 45 40 31 25
11 16 22 25 25 25 25 25 24 25 24 22 22 21 21 21 21 23 24 22 17 14 15 17 18 17 18 20 19 16 15 18 18 14 10 9 10 11 12 13 14 15 16 17 19 19 19 21 22 22 20 20 20 20 19 19 18 18 18 17 17 17 19 22 26 27 29 33 36 38 41 44 47 50 52 51 49 47 46 46 47 48 47 42 33 23 21
8 11 16 20 21 21 20 20 22 24 23 22 22 21 22 22 20 18 18 17 14 14 16 18 19 20 21 21 18 15 14 12 9 8 7 7 7 7 8 10 13 14 14 15 16 16 17 19 20 20 19 18 17 18 17 16 16 16 17 17 17 19 22 24 25 28 31 34 36 39 43 47 50 52 51 48 46 47 47 47 46 44 39 32 25 22 22
7 9 10 12 14 14 13 14 19 23 24 25 24 23 23 22 18 15 13 13 14 16 17 17 18 17 16 14 11 9 8 6 6 7 6 6 6 6 7 10 12 13 13 12 13 15 17 18 18 17 16 15 15 16 16 16 17 17 17 17 17 21 25 26 27 29 32 34 35 37 42 47 50 51 49 47 45 45 45 44 41 35 27 23 21 22 23
7 6 8 10 11 12 12 13 16 21 23 24 25 25 25 24 22 20 18 16 14 14 13 12 12 9 6 4 5 5 5 5 6 7 6 7 8 8 8 10 11 12 13 13 14 17 18 18 18 18 17 16 17 17 18 18 18 18 19 19 20 23 26 26 27 29 30 31 32 34 37 42 46 47 47 46 44 40 36 33 31 26 21 19 20 22 23
6 6 8 10 9 10 14 14 13 16 19 21 22 23 23 24 23 21 20 19 16 15 13 9 6 4 3 3 5 6 6 6 7 7 7 8 10 11 11 12 13 13 15 16 17 19 21 21 20 20 19 19 19 19 19 19 19 20 20 21 22 24 25 25 25 26 27 28 30 32 34 36 38 38 39 38 34 28 24 21 21 20 18 18 19 21 22
6 6 8 8 8 12 15 11 6 7 9 11 12 15 17 20 21 20 18 19 19 18 15 8 5 5 4 5 7 8 8 8 8 8 6 5 8 11 12 12 14 16 18 20 21 20 21 23 23 22 22 21 21 20 20 19 20 20 21 22 23 24 24 24 24 25 27 30 30 30 30 30 30 29 28 26 23 20 19 18 17 17 17 16 17 19 20
5 6 6 6 9 11 9 3 6 7 8 9 8 9 14 15 17 19 18 18 19 17 13 9 7 6 6 8 8 7 6 6 7 8 7 5 6 9 10 11 14 17 19 21 22 21 21 23 25 25 25 24 22 21 20 20 20 20 19 21 22 23 23 23 24 26 31 34 33 28 25 25 25 22 20 19 18 16 16 17 17 17 17 17 17 18 19
8 8 6 5 8 6 2 7 10 10 9 10 6 8 14 13 14 16 17 18 19 16 12 10 9 8 9 11 7 5 4 4 5 7 8 8 9 10 12 15 17 18 18 19 21 21 21 21 23 24 25 24 22 20 19 20 20 19 19 20 21 22 22 22 24 27 31 35 34 28 23 22 21 18 16 16 15 14 14 16 17 17 17 18 17 17 17
9 10 7 5 7 4 5 9 11 10 10 8 5 11 12 10 13 15 15 17 16 12 11 10 10 9 9 7 3 6 5 5 6 7 8 10 11 11 14 16 17 18 17 18 19 19 19 19 20 22 23 22 19 19 19 20 19 19 19 20 20 21 21 22 24 26 29 31 30 26 24 23 20 17 16 14 14 13 13 15 16 17 17 17 16 16 16
10 11 9 7 6 2 6 11 12 9 8 6 9 10 5 2 6 9 11 13 12 11 12 10 7 5 2 2 5 7 8 9 9 9 10 11 12 13 15 17 19 20 20 20 20 18 16 17 19 21 20 19 18 18 18 18 19 20 21 22 21 22 23 23 24 26 27 27 25 22 23 22 18 15 14 13 13 14 13 13 14 15 15 16 16 16 16
10 9 8 8 5 3 9 14 11 5 6 6 5 4 5 4 3 5 8 11 10 10 10 8 6 6 6 8 10 11 12 13 13 12 13 14 14 16 17 17 20 22 21 21 20 17 15 17 19 19 19 19 18 18 18 18 20 23 25 25 24 24 25 25 25 25 26 26 23 21 21 20 17 15 15 13 13 14 13 13 13 14 15 15 16 15 14
7 8 7 7 5 3 11 13 7 3 4 4 4 5 4 3 2 3 5 8 11 12 12 12 12 12 12 12 14 16 16 17 17 16 16 17 17 18 18 18 20 21 18 15 14 13 13 15 17 19 21 20 18 18 19 19 22 25 27 28 28 27 26 26 26 26 26 26 23 21 21 20 18 17 16 15 14 14 13 12 12 13 14 14 14 13 13
7 9 7 3 0 4 9 8 5 4 5 5 5 4 3 6 6 6 7 10 13 15 16 17 16 15 16 16 16 18 18 19 19 18 18 19 18 18 19 20 21 19 14 12 12 11 10 9 10 13 16 17 16 16 17 18 20 23 24 26 28 27 26 25 26 25 25 24 22 20 20 20 18 17 17 15 14 13 13 13 13 13 13 13 13 13 13
4 3 4 5 5 5 6 5 4 5 4 4 5 3 6 8 7 8 9 11 13 14 15 17 16 15 15 15 16 17 17 17 17 17 17 17 17 17 18 18 18 17 14 12 13 13 12 11 9 7 8 11 13 14 14 15 16 18 21 25 27 26 25 25 25 24 22 21 19 19 20 20 18 18 18 17 15 14 14 14 14 14 14 14 14 14 14
4 4 6 8 8 6 5 4 4 5 4 5 6 6 7 8 8 9 9 11 12 12 12 14 15 14 15 15 15 15 15 15 15 15 14 14 15 16 15 15 15 15 14 13 13 13 11 9 9 8 7 9 12 13 14 15 16 18 21 23 25 24 24 23 23 22 21 20 18 18 19 18 17 17 17 16 15 15 15 15 14 14 13 13 14 14 13
5 4 6 9 9 7 6 4 3 7 9 9 9 8 8 9 10 11 11 11 12 11 11 13 14 15 16 16 14 13 13 13 13 13 13 12 12 13 12 12 12 14 13 12 12 12 10 8 7 8 9 10 12 13 14 15 17 18 19 20 21 21 20 21 21 21 20 19 19 18 18 17 16 16 16 15 14 14 14 13 13 13 13 12 13 13 12
5 5 8 11 11 9 9 7 5 8 11 12 11 10 9 11 12 13 14 13 12 12 12 13 14 16 16 16 15 13 11 10 11 11 11 11 11 11 12 11 12 13 13 12 11 10 9 7 7 8 9 10 11 12 13 14 16 17 16 17 18 19 18 18 19 19 19 19 19 19 18 16 15 14 14 12 12 12 12 11 11 12 13 13 12 11 10
6 8 10 12 12 8 9 9 10 10 11 11 13 13 13 14 15 15 16 16 14 14 15 14 15 16 15 15 16 14 11 11 11 10 10 11 11 11 11 11 11 12 12 12 11 10 8 7 7 8 9 10 11 13 14 15 17 17 17 17 17 18 18 17 17 18 18 18 18 18 17 15 14 13 13 11 9 7 8 10 10 9 10 10 9 9 10
6 7 8 9 10 6 4 8 11 12 11 11 13 15 15 15 15 15 16 17 16 17 17 16 15 14 14 15 16 15 13 12 12 11 11 11 12 12 12 12 11 10 11 11 11 10 8 6 6 7 8 9 11 13 15 16 17 18 18 17 17 17 16 16 16 17 17 17 17 16 15 14 14 13 12 11 10 7 7 10 13 14 12 8 6 6 7
4 9 10 8 8 7 4 5 8 10 10 9 12 14 14 14 14 15 15 15 16 16 16 16 15 14 13 14 15 15 13 12 12 13 13 12 12 13 13 12 10 9 8 8 8 8 7 5 6 7 8 10 11 13 15 16 17 18 18 17 17 17 16 16 17 17 16 16 16 15 13 12 12 11 9 8 9 9 9 10 11 14 15 13 11 10 6
4 11 11 9 10 9 5 4 7 9 10 10 12 13 12 12 13 14 14 13 13 13 13 13 13 13 13 13 14 14 13 12 12 14 16 16 14 13 14 13 11 9 7 6 6 6 5 5 5 6 7 9 10 12 14 15 16 18 17 16 16 16 15 16 16 15 14 14 14 14 12 11 10 9 8 7 6 6 8 9 8 9 11 11 12 13 10
6 12 12 12 14 13 8 6 9 9 9 10 11 11 11 11 11 11 11 11 10 11 11 11 12 13 13 12 12 12 11 11 11 12 13 14 14 13 13 12 11 8 6 4 3 3 4 5 5 6 7 8 9 11 13 13 14 16 15 14 14 15 14 15 15 13 11 11 11 11 11 10 9 9 8 7 6 6 6 7 7 7 7 8 9 12 13
10 15 16 16 16 12 8 8 9 9 7 8 9 9 10 10 10 10 10 10 10 11 11 10 11 13 14 12 11 11 10 9 10 11 11 11 11 11 10 10 8 6 4 3 2 2 3 4 5 5 6 8 9 10 11 11 12 13 13 12 13 13 13 14 13 11 10 10 10 9 9 9 9 8 8 7 7 8 9 8 6 5 5 7 8 10 12
10 12 14 15 14 10 8 9 9 7 5 6 8 8 7 7 8 8 9 10 10 11 11 10 11 12 13 13 11 10 10 9 9 10 9 10 9 8 8 7 5 4 3 2 1 1 2 2 3 4 6 8 10 10 11 11 11 12 11 11 12 12 12 12 11 10 10 9 9 8 8 8 7 7 7 7 7 8 8 7 7 8 8 7 7 7 7
11 10 10 12 12 10 9 9 9 8 6 6 6 6 5 5 7 7 7 8 9 8 8 10 10 9 9 10 10 9 9 9 8 8 8 8 8 7 6 5 4 3 3 2 1 1 1 1 2 4 7 9 9 10 11 12 12 12 11 11 12 12 11 10 9 10 9 8 8 8 7 7 6 6 6 6 7 8 8 7 7 9 10 10 10 8 7
10 11 11 12 11 10 9 9 9 8 7 7 7 5 4 4 5 5 5 6 6 5 5 7 8 7 7 8 7 7 7 7 7 7 6 6 6 5 5 5 3 1 1 1 1 2 2 2 2 5 7 9 10 11 12 12 12 13 13 12 12 11 10 9 9 9 8 8 8 7 6 6 5 5 5 5 6 6 7 7 8 9 10 11 11 9 8
8 8 10 10 10 10 11 10 9 8 7 7 7 5 4 3 3 3 4 4 4 4 4 5 5 5 5 5 5 5 5 5 5 5 4 3 4 4 5 5 4 2 1 2 2 2 3 4 4 5 8 10 11 12 13 13 14 14 13 11 11 9 8 8 8 7 7 6 5 5 6 6 5 5 6 6 6 6 6 6 6 6 7 8 9 8 9
8 10 10 9 9 10 10 7 5 5 5 5 5 4 2 2 2 2 2 2 2 2 3 3 3 4 5 4 4 4 4 4 4 4 3 3 3 3 4 5 3 2 1 1 1 2 4 6 6 7 9 11 13 14 15 15 14 13 11 11 10 9 9 9 8 7 6 7 6 6 6 6 6 6 6 6 6 5 4 4 4 4 5 6 7 8 10
8 9 9 8 7 7 7 5 4 4 4 4 3 2 1 1 2 2 2 2 2 2 2 3 3 4 4 5 5 5 4 4 4 3 3 3 3 4 5 4 3 3 3 3 1 2 5 7 8 10 11 12 13 14 14 14 12 11 10 11 12 11 11 11 10 9 8 8 8 7 6 6 7 7 7 6 5 5 4 4 5 5 5 6 6 6 10
6 6 5 5 5 6 6 4 3 3 3 3 2 1 1 2 3 3 3 3 3 3 3 4 4 4 5 5 4 4 4 4 3 4 5 6 5 6 6 5 5 4 3 2 1 2 5 7 9 11 12 13 13 14 13 12 10 10 11 13 14 13 13 13 12 11 10 9 8 8 7 6 5 5 5 5 5 5 5 5 5 5 5 5 5 7 10
3 3 3 3 3 4 5 4 3 3 3 3 3 3 3 4 4 4 4 4 4 5 5 5 6 6 6 6 5 5 6 5 4 5 7 8 7 7 7 6 4 3 1 1 0 2 5 7 9 11 13 13 13 12 11 11 10 11 13 15 15 15 14 14 13 12 11 10 9 7 7 6 4 3 4 4 4 4 4 4 5 4 5 5 5 6 9
4 4 4 3 2 3 4 4 4 4 4 5 5 5 5 5 5 6 6 6 6 6 7 7 8 8 8 8 8 7 7 7 7 7 8 8 8 7 6 4 3 3 4 4 3 3 5 7 9 11 12 13 12 11 11 12 12 13 15 16 15 14 14 13 13 12 11 10 9 7 6 6 6 5 5 4 3 4 4 4 4 4 5 6 6 6 7
4 5 4 3 3 4 5 5 5 5 5 6 6 6 6 7 7 7 8 8 8 8 8 9 9 9 9 8 8 8 8 9 10 10 10 9 8 6 6 5 5 5 5 6 5 5 6 7 9 11 11 12 12 12 13 14 14 15 16 16 15 14 13 13 13 12 11 10 9 8 8 8 9 8 7 5 5 5 5 5 5 4 5 5 5 5 7
5 5 5 5 5 6 6 6 6 7 7 7 7 7 8 8 9 10 11 11 11 11 10 10 10 9 9 9 10 10 10 11 11 11 11 10 9 9 9 9 8 7 7 7 8 9 9 10 11 11 10 10 12 14 17 18 17 15 14 13 12 11 11 11 11 11 10 10 10 10 10 10 9 8 6 6 6 6 6 6 6 5 5 5 6 5 6
6 6 6 6 7 7 7 7 6 7 7 8 8 9 8 8 10 12 13 13 12 11 10 11 10 10 9 10 10 10 10 10 10 11 11 11 11 11 11 11 11 10 9 9 11 12 12 12 13 12 11 11 12 14 16 16 14 11 10 10 10 9 8 7 7 8 7 8 9 9 10 9 9 8 7 7 7 7 7 7 7 7 6 5 6 6 6
7 7 7 7 7 7 7 7 6 6 7 7 8 8 8 9 10 12 12 12 12 11 10 11 11 10 10 10 9 10 10 10 9 10 10 11 11 12 13 13 12 12 11 11 12 13 13 14 15 15 14 14 14 15 15 14 12 10 9 9 8 8 7 6 7 7 7 8 9 9 9 8 8 8 8 8 7 8 7 6 6 6 6 6 6 6 6
7 7 8 8 7 7 7 6 6 7 7 7 8 8 8 9 10 11 11 12 12 11 11 11 10 9 10 10 10 10 11 11 10 10 10 11 11 11 11 11 11 11 11 10 10 11 13 13 14 14 14 13 14 15 16 13 10 9 9 7 7 6 6 6 7 8 9 9 9 8 7 7 7 7 7 7 7 7 6 5 5 5 6 6 6 6 6
7 8 8 8 8 8 8 7 7 8 8 9 9 9 9 9 9 9 10 11 11 12 12 12 11 9 10 10 10 11 11 12 13 12 11 10 9 8 7 7 8 9 9 8 9 10 11 11 11 11 11 10 11 12 11 8 5 6 7 6 6 6 6 6 7 7 6 7 7 6 6 7 7 6 6 6 6 5 5 5 5 5 5 5 6 6 6
7 7 8 8 7 8 9 9 9 9 9 9 10 10 9 9 9 9 10 10 11 12 12 13 12 11 11 11 11 11 11 12 12 12 11 10 9 7 6 6 6 7 6 6 8 9 10 10 11 11 11 11 11 11 9 7 5 6 6 6 4 4 4 4 4 4 4 5 5 6 6 7 7 7 7 6 6 6 5 5 5 6 6 7 8 8 9
8 8 8 7 7 8 9 9 9 9 9 9 9 9 9 9 10 10 10 11 11 12 12 12 12 12 12 11 10 9 10 10 10 9 9 9 9 8 7 6 5 5 5 5 7 10 10 10 11 12 12 12 12 10 7 5 5 4 4 4 3 3 3 3 3 3 4 5 5 6 6 6 7 7 7 7 7 7 6 6 6 7 7 8 9 10 12
8 8 8 7 7 8 8 8 8 8 7 7 8 9 9 9 10 11 11 11 12 12 12 12 12 11 11 10 9 9 8 9 8 7 6 7 7 8 8 7 6 6 6 6 7 8 9 10 11 12 12 11 10 6 3 3 4 3 3 3 2 2 2 2 2 3 4 4 5 5 6 7 7 7 7 7 6 5 4 5 5 6 6 7 8 10 11
7 7 7 8 8 8 8 7 7 6 5 6 7 9 9 9 10 11 11 11 12 12 12 11 11 11 10 10 9 8 7 7 8 8 7 5 5 6 6 6 5 6 6 5 5 7 8 10 11 11 10 9 7 5 3 3 3 3 2 2 1 1 1 2 3 3 4 4 5 5 6 6 6 6 6 5 5 5 5 5 5 6 7 7 8 9 9
6 6 6 7 7 7 6 6 5 5 5 6 7 8 9 9 9 10 10 10 10 10 10 10 10 10 9 10 9 7 6 6 7 8 7 6 6 5 5 5 5 5 5 4 4 5 7 9 10 9 8 6 4 2 2 2 2 1 1 1 0 1 1 2 3 3 4 5 5 6 6 6 6 6 6 6 6 6 6 6 7 7 8 8 8 8 9
5 5 6 6 5 5 5 5 4 4 6 6 6 6 8 9 9 9 9 9 9 8 8 8 9 8 8 8 8 8 7 7 6 6 7 6 5 4 4 4 3 3 3 2 2 3 6 8 8 7 6 5 3 1 0 0 0 1 0 0 1 1 2 3 3 4 5 5 5 6 6 6 6 7 7 7 8 8 8 8 8 9 8 8 8 8 9
4 4 5 5 5 6 5 4 3 4 6 6 6 6 8 8 8 8 9 9 8 7 6 6 7 7 7 6 6 7 8 7 6 6 7 7 5 4 3 3 2 2 2 1 0 2 4 6 6 6 6 5 4 3 3 2 2 1 1 2 2 2 3 4 5 6 6 6 6 7 8 8 8 8 8 8 9 9 8 9 9 9 9 8 8 8 9
3 3 4 5 6 7 6 4 4 5 5 6 6 8 8 7 6 7 9 9 8 8 7 5 5 6 6 5 5 6 8 8 7 7 7 7 7 5 4 2 0 2 3 3 3 2 4 5 6 7 7 6 5 5 5 4 4 3 3 3 3 4 4 5 5 6 6 7 7 8 8 9 9 9 9 10 10 10 10 11 11 10 9 8 8 9 9
2 3 4 4 5 6 6 6 5 5 5 6 7 7 7 7 6 7 8 9 9 9 9 8 7 7 7 7 7 8 8 9 9 9 9 9 8 7 6 5 3 3 3 5 5 4 4 5 7 9 10 9 8 8 7 7 7 6 6 6 6 6 5 5 6 6 7 8 9 9 9 10 10 10 10 11 12 12 12 13 12 10 9 9 10 10 9
3 2 3 3 4 5 6 7 6 5 5 6 6 6 6 7 7 7 8 10 9 9 9 9 10 10 10 9 9 10 10 11 11 11 11 11 11 10 8 7 6 5 6 6 7 6 5 4 6 9 11 11 11 10 9 9 9 9 8 9 9 9 8 8 9 9 10 10 10 10 10 11 11 12 12 13 13 13 13 13 13 12 11 10 10 9 8
5 5 5 4 5 6 6 7 7 7 6 6 6 6 7 7 8 7 8 10 10 9 9 9 10 11 12 12 12 13 13 13 13 13 13 13 13 12 10 9 8 8 8 8 8 8 7 6 6 8 10 11 11 11 10 10 11 11 11 11 11 11 11 12 12 12 11 12 12 12 12 13 13 14 14 14 14 14 13 13 13 13 12 11 9 8 7
Wind_Direction
233 236 235 233 233 232 232 230 226 223 221 225 230 232 232 231 235 239 220 205 226 236 234 235 231 225 235 240 240 247 251 259 263 241 196 193 195 185 186 190 187 185 186 185 183 182 184 187 187 186 187 187 187 188 190 194 200 200 196 195 196 196 188 158 143 143 146 150 154 156 156 155 162 180 192 197 203 208 212 220 224 225 228 231 230 230 228
239 240 240 239 239 236 234 235 235 232 226 225 229 232 234 234 237 243 237 223 224 228 229 235 239 241 247 248 244 245 248 258 265 252 222 211 202 191 191 194 193 189 186 185 183 181 184 186 185 185 184 184 185 187 189 193 197 197 193 190 190 187 163 137 134 135 138 146 155 163 166 169 178 190 196 198 202 208 212 219 223 226 229 231 229 230 229
241 239 240 240 240 239 236 233 233 236 235 231 229 229 230 234 237 239 241 239 236 229 227 235 239 240 247 249 245 243 245 252 255 252 242 228 211 202 197 193 194 192 185 183 182 181 184 186 184 183 182 182 186 188 190 192 191 190 188 183 181 179 160 140 139 145 151 158 168 178 182 183 186 191 196 199 203 206 211 217 224 228 229 229 227 227 226
238 234 234 235 238 240 239 235 229 231 234 235 234 231 227 228 231 232 235 239 239 230 227 235 237 234 239 246 245 242 241 243 248 251 254 247 228 216 204 192 190 191 187 184 183 183 184 184 182 181 179 180 184 186 187 186 183 183 183 181 184 182 165 149 146 153 164 169 173 178 181 184 188 193 196 198 202 205 210 218 223 225 225 223 221 217 216
243 241 236 234 237 238 236 233 229 228 231 233 236 236 233 230 229 228 231 234 234 232 230 232 233 230 234 238 238 240 239 238 248 257 263 265 248 223 205 192 187 190 189 185 182 180 180 180 179 179 177 176 178 178 176 173 172 174 175 179 183 172 162 160 158 159 167 170 170 173 178 184 190 193 196 199 202 206 211 216 218 217 216 216 214 211 211
244 250 251 245 240 239 236 230 227 227 230 231 233 234 233 231 231 237 244 240 231 226 222 223 226 228 230 230 226 233 238 238 252 256 250 248 233 211 205 198 188 186 185 179 174 173 175 176 174 173 171 168 166 166 163 161 163 165 165 170 169 157 158 168 168 164 166 167 167 171 179 186 189 193 198 203 207 209 210 213 213 210 210 209 209 211 211
240 246 249 243 237 238 244 244 235 230 230 233 237 238 234 230 229 232 240 244 239 231 222 220 224 223 218 219 222 228 231 232 243 250 238 222 208 196 193 188 180 177 176 171 166 165 165 163 161 161 161 161 160 160 160 158 158 158 158 159 157 155 164 174 171 165 165 164 166 172 180 186 190 194 201 207 211 212 212 213 213 211 209 208 211 216 216
238 237 233 238 250 254 251 253 252 243 234 232 237 240 236 232 231 229 231 233 236 240 238 227 211 195 188 216 234 234 235 231 231 238 232 214 203 197 190 182 176 173 170 165 160 158 156 155 157 157 158 159 159 157 158 157 156 157 156 157 159 162 171 176 171 165 163 163 168 176 181 186 191 196 202 208 212 213 213 213 212 211 212 212 215 221 218
229 239 239 249 274 266 249 245 257 264 257 251 250 246 240 234 231 230 228 227 229 234 233 217 175 170 203 236 234 223 222 223 218 221 224 207 195 193 189 182 174 168 165 161 157 158 160 159 157 154 153 154 153 152 153 154 156 157 155 156 162 165 171 176 171 165 165 169 174 179 182 186 191 196 201 206 209 210 211 213 212 212 215 216 220 222 212
220 239 249 255 261 256 246 272 5 359 332 328 318 266 245 236 230 227 226 226 228 226 215 191 166 168 215 243 233 202 198 205 201 201 200 188 180 175 168 165 163 162 164 159 155 163 168 159 150 148 147 148 148 149 152 153 154 154 153 155 161 165 169 173 170 168 173 178 179 181 184 188 190 194 200 204 206 207 209 211 213 214 217 221 222 218 207
219 227 236 243 251 258 356 9 357 350 338 343 338 253 239 230 219 220 224 225 224 217 203 184 171 183 226 239 217 154 160 183 178 182 180 170 166 160 155 157 157 156 157 155 156 165 164 149 140 140 141 143 145 148 150 151 151 151 151 153 158 162 166 167 167 170 176 181 183 183 184 184 184 188 194 198 201 203 205 211 217 221 224 227 223 218 216
213 221 229 236 248 268 18 2 341 333 331 331 267 236 237 215 195 198 210 217 212 203 196 188 183 202 235 239 168 124 138 149 146 157 158 153 154 154 151 149 143 138 141 146 152 154 147 134 131 135 137 139 143 146 148 150 150 148 149 152 154 157 160 163 167 170 175 180 182 181 180 180 180 182 185 189 193 197 204 214 223 226 227 226 222 224 231
209 216 223 239 252 276 12 346 332 325 313 278 231 234 268 259 197 191 197 202 196 187 192 192 189 201 226 122 120 127 133 130 128 137 141 139 139 136 134 134 132 130 133 136 137 133 126 124 128 132 137 139 142 146 150 151 149 146 147 150 153 155 158 162 166 170 174 178 178 175 176 177 176 176 178 181 182 186 195 204 211 219 223 223 224 228 232
213 215 221 243 251 47 12 335 319 294 260 248 242 283 329 323 248 203 191 189 178 171 172 158 138 131 121 120 124 123 123 122 120 121 122 120 117 114 113 117 124 127 127 127 126 126 126 130 133 137 140 141 143 148 151 152 151 148 150 154 156 157 159 162 165 168 173 177 175 172 174 175 172 170 172 173 171 175 188 197 202 212 220 224 226 226 226
199 203 212 235 231 39 4 333 308 273 266 288 338 342 347 21 76 126 146 145 137 133 125 115 115 115 108 108 111 112 112 110 106 105 107 107 106 107 108 110 114 117 115 112 114 119 126 134 141 144 143 143 148 153 153 154 155 154 155 156 157 157 159 160 163 166 170 173 173 171 171 171 169 166 165 167 170 177 191 198 198 205 212 217 220 222 224
196 202 196 190 47 12 355 336 312 314 329 339 337 335 53 70 71 83 90 96 105 112 113 114 114 107 99 98 101 103 103 100 96 96 101 106 108 109 108 108 108 108 100 87 83 79 77 91 117 134 140 144 147 149 150 153 156 155 155 154 154 155 157 158 162 166 167 168 169 168 168 168 167 165 165 168 174 182 191 195 195 198 203 208 214 218 220
196 196 152 93 60 22 355 341 320 318 340 3 356 25 82 80 75 78 81 86 92 100 108 110 106 98 93 91 91 93 93 91 90 89 92 97 101 101 97 95 98 102 96 85 79 71 61 60 66 82 116 132 132 131 137 144 150 154 154 153 153 154 154 157 161 163 163 163 164 165 167 169 169 169 171 175 178 181 188 193 195 198 201 205 212 216 217
104 79 86 84 72 38 358 344 344 351 12 32 38 53 65 63 63 66 68 75 80 83 90 95 93 89 83 78 76 77 78 78 78 77 79 81 85 89 84 77 82 92 94 91 89 82 73 68 64 61 79 109 118 126 135 143 154 159 155 151 150 152 154 158 159 158 160 162 162 162 165 169 171 171 174 178 180 182 189 195 197 201 206 209 211 212 214
157 135 100 84 74 40 354 341 19 27 28 34 43 51 54 56 60 60 58 66 70 68 68 77 83 85 81 77 71 64 62 65 68 69 72 71 72 76 73 67 74 85 87 88 90 86 77 72 71 70 77 93 110 124 134 143 154 158 150 143 145 149 153 156 157 158 161 162 160 160 162 164 168 172 175 180 181 184 192 202 206 211 214 215 216 216 215
153 121 100 87 75 41 8 11 31 25 23 30 38 48 60 62 62 61 60 61 62 60 59 62 69 73 74 75 74 66 57 56 59 63 68 69 69 72 72 71 79 87 87 84 84 82 75 69 70 76 83 94 110 124 135 147 155 153 144 143 147 150 152 154 156 159 159 158 159 163 165 164 167 172 176 183 190 195 201 208 214 219 220 219 221 220 213
118 96 100 97 87 50 11 16 22 15 16 26 34 44 55 60 61 61 60 57 54 54 53 52 56 59 60 65 69 66 56 50 51 57 65 69 68 70 71 71 78 89 97 96 92 89 84 78 79 86 95 109 123 133 143 152 151 146 143 146 150 150 149 149 152 154 156 159 164 166 164 161 162 163 164 170 179 185 195 204 210 218 225 221 215 212 210
151 131 133 121 110 95 27 14 12 9 16 33 39 38 39 47 57 61 61 59 55 53 52 51 52 53 54 58 63 63 57 49 45 49 58 64 66 67 70 72 74 84 98 104 103 100 97 95 101 106 113 124 132 138 144 146 143 140 142 145 145 145 145 146 150 154 159 165 170 170 165 162 162 163 165 175 185 186 197 212 214 216 221 217 195 198 213
135 129 131 123 113 110 88 38 21 11 11 39 57 48 34 34 44 52 58 59 56 53 52 50 52 55 55 57 60 59 54 47 43 46 49 53 58 64 68 69 69 75 89 100 105 107 110 113 117 120 124 129 132 133 137 139 139 139 141 142 141 142 144 144 150 157 161 163 168 172 170 165 163 161 164 183 204 219 231 236 229 221 223 220 208 211 226
105 117 119 117 111 106 99 77 56 29 8 23 53 56 44 37 38 44 50 53 54 58 56 50 50 53 54 56 58 57 53 45 41 45 47 45 48 56 61 62 63 65 73 87 102 111 121 128 129 132 132 130 130 132 135 138 138 138 139 138 137 139 139 140 148 158 159 159 166 171 168 164 163 165 168 172 183 211 230 234 228 220 220 220 217 220 224
118 112 109 108 104 103 105 93 71 47 19 22 38 42 43 45 45 46 50 48 47 54 56 51 48 46 47 51 53 52 52 47 41 45 50 49 46 48 51 52 53 53 57 66 87 117 143 148 144 142 137 131 130 131 133 136 136 136 136 134 131 134 137 141 151 158 156 155 162 165 163 164 168 174 183 185 174 167 182 203 214 216 220 225 227 227 225
110 114 110 104 101 105 113 100 74 54 39 44 51 44 36 38 41 46 50 49 43 42 44 44 42 39 39 41 43 45 47 44 39 43 49 51 50 47 43 43 43 43 49 58 73 109 145 151 148 141 131 127 126 126 127 128 127 127 128 125 121 125 132 139 148 153 152 154 161 161 161 166 171 176 186 194 187 171 162 167 176 185 205 222 223 221 219
84 107 112 107 98 88 84 87 86 81 67 63 70 67 49 40 46 48 50 52 47 41 40 40 37 37 36 32 30 34 37 34 34 37 38 42 46 42 35 33 32 32 42 60 79 103 130 147 144 125 110 112 118 121 121 121 118 119 122 119 114 115 122 131 142 147 149 155 161 159 157 160 165 173 178 185 195 193 186 187 180 164 157 170 181 183 183
52 61 80 96 99 91 85 87 91 89 68 41 49 68 73 66 62 56 52 52 47 40 40 40 36 36 37 30 23 22 24 24 26 27 27 28 26 18 14 15 15 23 40 53 81 126 157 169 135 110 103 107 117 122 122 121 120 119 119 117 115 118 122 128 135 140 140 141 142 140 141 151 165 174 176 186 201 205 204 204 186 157 142 140 143 142 144
50 51 60 73 83 89 87 76 66 62 48 24 24 51 80 81 73 67 62 54 43 35 39 40 35 34 37 35 27 18 13 12 11 10 11 10 1 352 351 346 336 347 59 88 124 148 158 145 115 110 110 112 118 123 123 123 122 118 112 107 106 110 112 109 113 120 118 114 116 121 126 139 157 166 167 177 186 182 179 177 167 149 137 135 137 137 139
56 65 69 70 69 70 69 59 47 45 40 25 23 41 69 84 90 86 73 59 42 28 24 28 30 31 32 35 34 21 6 357 349 340 336 337 332 330 331 324 304 258 160 114 114 142 152 140 126 122 121 121 124 127 127 125 121 114 105 95 91 96 102 101 102 110 115 111 111 124 136 142 149 154 155 156 157 158 159 155 151 151 147 148 156 161 153
63 67 68 69 69 71 71 65 49 40 37 30 24 23 41 89 115 114 95 86 75 45 22 19 24 21 13 11 13 6 352 337 324 312 309 317 317 315 320 319 307 295 324 14 70 137 150 146 136 128 125 126 129 132 131 128 124 117 108 98 96 101 109 111 106 107 116 120 119 124 137 146 146 143 141 141 146 154 156 153 169 194 193 186 192 184 158
73 71 67 66 73 78 77 72 60 50 47 48 46 29 21 101 120 119 110 106 104 91 73 53 35 20 7 358 351 345 339 332 325 325 335 342 340 332 323 314 303 298 305 314 343 141 154 155 147 136 130 130 133 136 136 133 128 123 119 115 112 109 109 109 107 102 104 111 113 114 123 133 136 136 138 143 154 165 174 186 201 211 210 206 201 174 156
66 74 70 63 75 87 86 80 72 61 55 62 77 95 111 103 92 82 80 84 81 73 63 51 42 38 30 15 360 348 347 348 355 5 5 0 356 348 336 323 315 304 291 288 280 158 161 160 152 143 139 137 138 142 145 142 135 130 127 124 120 115 109 107 106 104 103 104 99 96 103 115 125 138 152 161 171 183 196 206 209 206 204 199 173 155 165
77 93 85 66 68 85 99 116 134 135 121 109 100 90 78 72 69 62 58 61 62 57 48 44 44 45 42 37 33 27 21 20 23 18 9 4 359 350 340 335 335 335 335 3 92 147 152 153 152 150 147 145 143 144 146 143 138 134 131 128 125 123 119 115 113 111 108 105 100 98 104 111 118 140 158 167 180 194 205 211 206 191 174 153 134 146 176
107 108 97 83 76 91 113 123 118 109 105 98 89 81 72 63 59 59 58 58 58 58 57 54 51 50 50 45 40 38 36 34 30 22 15 12 7 359 355 7 27 43 56 62 76 117 139 148 153 150 145 141 140 139 140 139 135 130 128 126 126 126 124 121 120 118 117 120 122 124 131 140 153 166 170 168 174 183 189 192 189 177 161 144 130 141 177
94 101 97 95 100 107 112 110 101 93 88 81 76 75 70 61 58 61 64 64 63 64 66 64 59 57 56 51 45 42 39 34 31 27 22 20 23 34 46 50 52 64 75 76 81 101 122 137 144 142 132 122 115 117 125 129 128 126 127 127 129 130 129 129 129 130 135 144 148 149 155 165 173 176 176 174 176 182 189 188 185 189 191 180 164 160 177
90 99 103 103 103 103 100 94 88 84 80 73 68 63 58 54 54 56 59 61 60 59 59 61 60 57 52 48 47 45 39 33 32 32 30 29 39 55 64 63 63 73 80 77 76 84 101 121 134 136 131 120 114 117 124 125 121 122 126 129 132 135 136 137 138 140 145 153 155 155 159 166 165 163 167 178 185 191 200 198 191 195 204 203 200 198 190
90 92 93 91 88 89 90 89 83 76 72 72 70 62 54 52 55 57 56 55 52 51 51 54 57 58 52 48 47 44 39 35 35 37 40 46 53 61 65 64 62 61 64 71 79 85 94 110 119 119 118 122 123 124 128 127 123 125 133 137 139 143 141 133 125 126 136 151 158 158 159 161 159 162 175 187 191 196 204 205 196 191 193 201 212 217 208
92 90 90 87 85 85 86 85 78 68 64 67 68 62 54 53 57 61 60 55 49 49 51 53 55 56 55 51 49 45 41 38 38 41 48 59 68 74 73 66 56 52 56 66 75 80 86 97 103 102 104 111 117 123 128 129 124 123 129 133 133 133 128 119 120 131 147 165 169 166 166 169 172 178 187 193 196 200 203 203 200 199 202 208 217 222 223
86 85 85 85 86 88 87 82 75 69 65 65 65 60 55 53 54 57 57 54 51 52 54 55 55 54 51 48 46 44 41 40 42 48 57 70 79 82 77 63 52 51 55 57 63 73 83 90 94 96 100 107 113 121 128 128 119 113 120 129 135 138 142 153 163 170 175 177 173 172 175 180 183 187 192 197 202 204 200 198 206 215 220 224 229 232 235
85 84 83 81 80 81 81 79 76 72 66 62 60 57 52 50 51 52 50 49 49 50 51 50 47 45 44 44 42 40 40 40 43 48 57 68 76 79 75 63 56 58 62 65 75 88 93 95 98 102 107 113 119 125 131 135 132 129 137 150 163 168 170 180 190 190 181 172 170 175 179 179 180 186 190 194 199 203 202 206 217 229 240 245 246 247 249
88 83 80 76 73 72 73 72 71 69 64 57 54 52 49 48 50 50 47 45 44 45 46 45 40 34 33 34 36 37 37 38 40 45 53 58 61 67 78 79 70 61 62 79 100 107 105 104 107 108 111 121 131 136 141 143 140 137 139 146 156 165 168 177 189 184 168 164 174 181 181 182 186 187 188 192 200 207 214 228 240 247 254 260 261 261 260
83 79 76 72 66 63 63 62 61 62 60 53 49 49 51 51 50 49 46 43 41 40 41 42 38 34 33 34 36 37 40 40 41 46 56 61 61 63 71 80 80 70 68 88 111 115 110 107 108 110 116 123 128 133 139 137 129 126 130 137 149 170 179 178 178 173 169 177 187 187 187 193 198 197 200 211 224 229 235 248 259 263 266 268 267 265 262
76 73 70 67 63 59 56 53 52 52 52 48 46 46 45 46 47 46 44 43 42 40 39 39 36 32 31 33 34 32 33 35 36 42 58 72 73 66 62 67 77 82 81 90 103 107 106 107 111 116 120 121 118 114 110 110 109 108 110 120 140 169 175 171 181 188 190 194 198 198 197 202 208 213 216 222 231 239 243 246 254 263 271 272 270 267 264
76 71 66 64 62 58 53 50 47 43 40 46 51 48 43 41 43 43 41 41 41 41 40 40 37 30 26 28 33 34 33 33 33 33 38 53 66 65 61 64 76 89 96 98 96 97 105 116 124 127 126 121 114 107 97 87 85 87 93 105 130 162 169 181 193 197 199 202 206 207 205 205 210 218 220 216 217 225 229 232 243 258 266 268 269 271 270
74 73 68 63 59 54 50 49 44 36 34 42 48 47 42 39 39 41 41 39 39 39 39 40 40 35 27 25 25 26 30 39 44 42 40 44 55 64 67 68 80 98 107 102 88 98 118 133 141 142 139 138 137 123 99 92 90 88 91 96 125 183 201 207 202 199 204 208 207 207 208 209 213 215 212 208 216 227 232 235 246 256 259 261 266 270 271
64 69 67 60 52 50 47 40 33 34 39 38 36 37 38 36 35 35 36 36 35 35 38 43 45 40 34 31 26 21 20 26 37 44 43 42 49 66 75 80 99 124 130 102 63 97 131 149 158 159 159 168 194 243 285 132 112 34 12 292 271 247 231 223 214 209 211 209 205 207 213 216 220 221 217 216 224 235 237 236 242 250 255 258 263 267 268
46 53 54 48 43 43 39 26 21 35 40 34 27 28 28 25 25 28 29 27 21 17 25 43 47 38 28 27 30 27 20 15 18 25 25 20 18 31 51 72 129 182 207 231 186 156 172 182 188 188 188 198 224 257 270 264 269 284 273 259 257 248 235 224 217 214 213 208 207 212 217 218 221 226 227 228 232 237 240 242 247 253 257 259 262 268 272
38 47 52 50 43 38 31 22 25 36 34 30 30 26 14 2 11 28 29 21 13 6 5 18 36 32 19 9 13 21 18 7 359 359 358 352 351 358 6 10 195 209 244 282 288 244 214 215 221 224 222 223 237 256 266 267 265 263 261 260 257 248 239 231 226 224 223 220 218 221 225 228 231 235 240 246 250 252 253 255 255 253 253 261 270 275 273
39 48 55 52 43 35 31 30 34 37 31 26 28 23 4 351 3 26 25 15 10 10 7 5 8 13 9 0 1 12 15 5 355 350 347 340 334 330 326 322 311 268 264 288 301 286 237 220 226 233 234 237 244 252 256 258 257 254 252 252 251 247 241 236 233 233 234 234 235 234 234 236 242 247 250 255 259 261 262 263 261 255 250 255 262 265 264
25 29 40 41 40 40 38 34 33 34 27 18 16 14 6 357 359 15 23 17 7 3 4 2 359 358 359 359 357 358 357 352 348 347 345 340 333 324 313 305 299 284 272 280 292 292 277 251 233 229 232 239 248 253 254 255 257 257 255 253 252 250 247 242 240 238 235 235 239 243 242 243 250 255 255 257 261 263 262 262 261 256 251 250 250 250 254
34 27 23 32 46 48 41 30 24 25 25 16 5 2 2 354 347 353 10 12 1 351 353 354 346 343 350 356 352 344 340 338 339 340 339 336 332 327 317 307 299 290 280 277 279 282 281 275 255 237 235 243 252 256 253 250 249 252 254 252 250 250 253 253 252 251 249 245 244 246 248 251 255 256 256 258 260 260 258 258 257 253 251 251 249 247 249
Height
677 672 671 670 671 673 674 675 676 675 675 678 680 678 674 678 691 696 686 685 694 687 675 671 668 667 670 668 665 664 663 662 660 661 665 667 667 669 671 672 672 673 676 677 678 680 683 687 691 694 698 702 705 710 713 716 719 722 725 729 731 735 740 744 748 751 755 760 763 766 772 778 780 781 781 782 782 782 781 780 780 781 782 784 787 790 792
680 674 672 669 669 672 672 672 672 671 671 672 674 673 671 673 679 678 676 681 683 676 670 666 660 658 659 659 658 659 660 660 660 662 664 663 663 665 666 668 668 669 671 673 675 678 680 683 687 690 694 698 701 706 709 712 716 718 722 726 729 734 739 742 745 750 754 757 760 763 767 770 771 771 770 770 770 769 770 773 776 779 781 783 785 788 792
685 677 673 670 669 670 671 670 669 668 668 667 667 668 669 672 675 672 672 679 677 665 658 658 655 653 656 657 657 658 659 660 660 661 660 659 660 660 660 662 665 666 667 670 672 675 677 679 683 687 691 694 698 702 705 708 712 715 720 723 727 732 736 739 742 745 748 751 753 756 758 761 763 762 761 761 761 763 766 770 773 776 778 780 783 788 794
690 675 674 674 668 667 670 669 666 666 668 667 664 661 661 665 671 674 676 679 673 660 654 655 653 652 658 659 656 657 658 657 657 658 657 657 657 657 657 659 661 664 664 666 668 670 672 676 680 684 688 692 696 698 702 705 708 713 716 720 725 729 733 737 739 741 743 744 747 749 752 755 756 756 756 757 758 760 762 764 766 770 775 778 782 786 791
690 674 671 670 671 680 680 665 658 659 661 662 660 656 653 652 657 668 672 667 659 653 652 655 653 653 657 656 653 655 656 655 655 655 656 657 656 656 658 658 660 662 662 662 664 667 670 674 679 682 686 690 693 696 699 703 706 710 713 717 722 726 730 735 736 737 739 741 744 747 749 751 753 753 755 757 756 756 757 759 762 767 772 776 780 783 786
694 680 670 673 688 698 679 649 640 647 651 654 657 655 650 646 647 651 652 649 647 647 648 650 652 651 650 649 648 649 651 653 655 654 654 656 655 655 657 656 656 658 659 660 662 665 669 673 677 681 685 688 691 695 698 701 704 707 711 715 719 723 727 731 733 734 736 739 742 745 747 749 750 752 754 755 755 756 757 759 761 765 770 774 777 780 783
690 680 681 700 709 691 659 637 633 635 638 643 648 648 643 641 642 644 647 647 644 642 641 643 645 646 646 647 647 648 648 650 652 653 653 654 654 654 655 655 655 656 656 657 659 662 666 670 674 678 682 686 690 693 697 700 703 706 709 712 716 721 724 728 730 732 734 737 740 743 745 747 748 750 752 753 755 757 758 760 761 764 768 771 774 778 781
688 689 698 709 699 668 648 644 639 634 636 640 647 651 643 635 636 640 644 646 643 640 640 640 643 646 647 648 648 647 646 646 648 650 650 649 649 650 650 651 653 653 653 655 657 660 663 667 671 674 678 683 687 690 695 698 701 704 707 710 714 718 722 725 727 729 732 735 739 741 743 745 747 749 751 752 755 758 759 761 762 764 767 769 772 777 779
689 696 697 691 684 672 661 654 647 643 645 645 648 655 646 632 629 633 637 641 641 639 640 641 644 646 650 654 650 643 642 644 644 645 644 643 643 643 643 645 648 649 651 653 656 659 662 663 666 669 674 679 683 687 692 695 698 702 704 707 712 716 719 722 725 727 730 734 737 740 742 744 746 748 750 753 756 757 759 761 762 764 766 769 771 775 777
685 694 700 698 700 692 672 659 652 648 649 647 646 654 650 633 624 627 631 637 639 637 640 644 646 650 659 661 651 642 641 642 640 641 641 640 640 639 639 643 646 648 649 650 653 659 662 661 662 665 670 675 680 685 689 692 696 700 703 706 710 714 717 720 723 726 729 733 736 739 741 743 745 747 750 753 755 756 758 760 762 764 766 768 771 773 775
684 693 704 708 706 691 673 666 660 652 651 648 649 661 659 636 624 626 629 634 636 636 640 644 647 656 664 659 647 641 641 639 637 639 640 639 638 638 639 641 643 645 648 650 652 657 660 660 661 665 669 673 678 683 687 691 695 698 702 706 710 713 716 719 723 726 729 733 736 738 741 742 744 747 749 752 754 756 758 760 761 763 765 768 770 771 772
684 691 697 698 692 681 671 668 662 655 650 650 664 680 665 632 622 626 628 631 633 634 638 642 647 654 657 650 642 639 638 637 637 638 639 639 638 637 638 640 642 644 647 650 653 656 659 660 663 666 670 674 679 683 686 690 693 696 701 705 709 712 715 719 722 725 728 732 735 737 739 740 742 745 748 751 753 755 757 759 760 762 764 766 768 769 770
684 689 695 692 682 673 670 668 661 654 652 659 674 678 656 633 628 628 625 628 631 631 635 639 644 647 646 641 638 636 635 638 639 638 637 637 636 637 638 640 641 643 646 650 653 656 660 662 665 668 672 675 679 684 686 689 690 693 698 703 707 710 714 717 721 724 727 731 733 736 738 740 742 745 747 750 752 754 756 758 760 762 763 764 765 767 767
680 682 688 692 685 672 669 668 658 653 663 673 669 656 643 639 636 630 626 627 627 629 634 637 641 643 640 636 636 635 636 638 639 638 637 637 637 639 640 642 643 644 647 651 654 657 661 663 666 669 672 675 679 683 685 688 689 690 693 698 703 707 711 715 719 723 726 730 733 735 737 739 742 744 747 750 752 753 755 757 759 761 763 763 763 765 766
678 685 691 699 695 677 668 669 664 661 669 670 659 648 643 639 635 632 630 627 625 629 635 638 641 641 639 637 636 636 637 637 637 638 638 638 640 641 642 644 646 648 651 655 658 661 663 665 667 668 671 674 677 680 683 685 687 689 690 694 699 703 707 712 716 720 724 728 731 733 735 738 741 744 746 749 751 753 754 756 758 760 761 762 763 764 765
672 684 687 687 683 671 666 672 673 668 666 660 652 650 647 642 641 640 638 634 631 632 635 640 642 643 642 642 640 639 639 638 638 639 639 640 642 643 644 648 650 652 656 658 661 664 666 668 670 670 671 672 674 677 681 685 688 690 692 694 698 701 705 709 714 718 722 726 728 730 733 737 740 743 746 749 751 752 754 755 757 759 760 761 761 762 764
660 666 668 666 666 665 666 670 669 665 661 656 651 650 648 647 647 644 643 643 640 638 640 642 643 644 645 645 644 643 643 642 642 643 644 644 645 647 649 652 654 656 659 661 664 667 669 670 673 674 674 673 673 676 681 685 690 694 695 696 697 700 704 708 713 717 721 724 727 729 732 736 739 742 745 747 749 751 753 754 756 756 757 758 759 760 761
658 661 662 662 665 669 669 668 666 663 659 655 652 652 652 651 649 646 647 647 645 645 646 644 644 646 646 646 647 647 647 647 648 648 649 649 651 652 655 657 658 660 662 664 667 669 671 673 674 676 676 676 676 679 681 684 690 696 696 696 697 700 704 708 711 715 719 723 726 728 731 735 739 742 744 745 747 749 750 752 753 754 755 756 757 758 759
665 669 669 665 669 676 674 669 667 664 661 657 655 655 655 653 650 649 649 649 649 651 650 648 648 647 646 648 652 653 653 655 654 654 655 655 656 658 660 661 662 663 664 667 669 671 673 675 676 677 678 677 679 681 682 685 690 695 696 695 698 701 706 709 712 715 718 722 725 728 731 735 738 741 743 744 745 747 748 749 751 752 753 753 754 755 756
664 669 670 667 671 678 676 673 672 670 667 663 658 656 656 654 653 653 652 653 655 655 654 653 652 650 650 651 654 658 660 661 660 660 661 661 661 662 664 665 666 666 668 670 672 673 676 677 678 679 679 680 681 683 685 688 691 694 694 695 698 702 706 710 713 715 718 721 724 728 732 735 737 739 740 742 743 745 746 747 748 750 751 752 752 754 755
666 672 672 670 676 684 683 681 680 676 672 669 665 661 659 657 657 658 657 659 659 659 659 658 657 658 658 656 657 662 666 666 666 665 664 664 665 666 666 667 669 669 671 673 674 676 678 680 681 682 682 683 684 685 687 690 691 692 693 696 699 702 706 710 713 716 719 722 724 727 731 734 735 736 738 739 742 744 745 746 747 748 749 750 751 752 753
670 675 673 672 681 692 693 690 686 681 677 674 672 669 667 665 665 665 665 665 665 663 663 663 664 667 667 663 663 666 669 671 671 669 667 667 668 668 669 670 671 673 674 675 677 679 681 683 684 684 684 685 686 687 688 689 689 691 693 695 699 702 705 709 713 716 718 721 724 727 730 732 733 735 736 738 741 743 744 745 746 748 748 749 750 751 752
668 668 670 672 680 691 696 694 691 687 682 679 678 678 677 675 673 671 672 673 672 671 670 670 671 673 672 670 669 671 673 675 675 672 671 670 670 671 672 673 674 675 676 677 679 681 683 684 685 686 686 686 687 687 687 688 689 691 693 694 697 700 703 707 711 714 717 720 724 726 728 729 731 733 735 737 740 741 742 743 745 746 747 748 749 750 751
670 666 670 674 678 688 696 695 693 691 688 684 683 684 685 684 682 680 679 680 679 679 679 678 677 677 675 674 674 676 678 679 678 676 675 674 673 674 674 675 677 678 678 680 681 682 683 685 686 686 687 687 687 688 689 689 690 692 693 694 696 698 702 706 711 714 716 719 722 724 726 727 729 731 733 735 737 739 740 741 743 744 745 746 748 749 751
670 668 672 675 680 689 695 695 694 694 694 690 689 690 691 691 689 688 687 686 685 684 684 683 681 680 678 677 678 679 681 682 682 681 679 678 678 678 677 678 679 680 681 683 683 683 685 686 686 687 688 688 689 690 691 692 693 694 695 696 697 699 702 707 711 713 715 718 720 722 724 726 727 729 731 732 734 737 739 740 742 743 743 745 746 748 750
670 671 674 679 684 690 694 694 695 697 698 696 696 697 696 694 694 693 691 691 690 688 688 687 684 682 682 681 682 683 684 685 685 683 681 681 681 680 680 681 681 682 683 684 684 685 686 687 687 688 688 689 690 691 692 694 695 696 697 698 699 701 703 706 710 712 714 717 719 721 722 724 725 727 729 730 732 735 737 739 741 742 743 745 746 747 748
676 674 675 680 688 693 693 694 696 699 700 698 698 698 698 696 696 696 694 692 692 691 691 689 687 686 686 685 685 686 686 686 686 684 683 682 681 682 682 682 682 683 684 684 685 686 686 686 687 688 688 689 691 692 693 695 697 698 699 700 700 702 704 706 709 711 714 716 718 720 722 723 724 726 728 730 732 734 735 737 738 740 743 745 746 747 747
684 681 679 683 691 695 694 693 695 697 698 698 697 697 697 697 697 697 697 695 695 694 693 691 691 690 690 690 690 690 689 688 687 685 684 683 683 684 683 683 683 683 683 683 684 685 686 687 687 688 689 691 692 693 694 696 698 699 700 700 701 703 706 707 709 711 714 716 718 720 722 723 725 726 728 729 731 732 733 734 736 738 742 743 744 745 746
693 691 689 690 693 695 694 695 696 697 699 700 699 699 700 701 700 700 700 699 698 697 695 694 695 694 694 694 693 692 692 691 690 688 687 687 686 685 684 683 683 683 683 683 684 685 686 687 687 688 690 692 692 694 696 697 699 700 701 701 703 705 706 708 710 712 715 717 719 721 722 723 725 726 727 728 729 730 731 733 735 737 740 741 742 744 746
700 698 698 698 698 698 699 701 702 703 703 703 703 703 703 704 704 704 703 702 701 700 699 698 698 697 696 696 695 694 694 694 692 691 690 689 688 687 685 684 683 682 682 683 683 684 686 687 687 689 690 691 693 695 696 698 700 701 702 703 705 706 707 710 711 713 716 718 719 720 722 723 724 725 726 727 728 729 731 733 734 736 738 740 742 743 745
703 701 701 703 703 704 705 706 708 709 707 706 707 707 705 705 706 706 705 705 704 704 703 703 701 699 698 697 696 695 694 694 693 691 689 688 687 686 685 684 683 682 682 682 683 684 685 686 687 688 690 691 693 695 697 699 700 701 703 705 706 707 709 710 712 714 716 718 719 720 721 722 723 724 725 726 728 729 731 733 735 736 738 740 741 742 743
705 704 705 706 706 707 708 709 711 711 710 709 710 710 709 708 708 707 706 705 705 705 705 704 702 701 699 697 695 694 693 692 690 689 687 686 685 685 684 684 683 683 683 683 683 683 684 685 686 688 690 691 693 695 697 699 700 701 703 705 707 709 710 711 713 715 717 718 719 720 721 722 723 725 726 727 729 730 732 734 735 736 737 738 740 741 742
708 708 709 709 708 708 710 711 712 713 712 712 712 712 711 709 708 707 706 705 704 704 703 702 701 699 698 696 695 693 691 690 688 687 686 686 685 685 684 684 683 683 683 683 682 683 684 685 686 687 689 691 693 694 696 698 699 701 703 704 707 710 711 712 714 716 717 718 720 721 722 724 725 726 728 729 730 732 733 734 735 736 737 738 739 740 742
709 710 711 711 710 710 711 712 712 712 711 711 711 711 709 708 706 706 705 703 703 702 701 699 698 696 695 694 693 692 690 689 689 688 688 687 686 685 684 683 683 682 682 682 682 683 683 685 686 688 689 690 692 694 696 697 699 701 702 704 707 709 711 712 714 715 717 719 720 721 723 724 725 727 729 731 732 733 733 734 734 735 736 738 739 740 741
708 709 710 710 710 710 710 710 710 709 708 708 709 708 708 707 705 704 704 703 702 701 700 698 697 695 694 693 692 690 690 690 689 689 688 688 687 685 684 683 682 682 682 683 683 683 684 685 687 688 689 691 692 694 696 698 700 701 703 705 707 709 710 712 713 715 717 719 720 721 722 723 724 726 729 731 732 733 733 734 734 735 736 738 739 740 741
707 709 709 709 710 710 709 708 708 708 707 707 706 706 706 706 704 704 703 702 701 700 699 698 697 695 694 693 692 691 691 690 690 689 689 688 686 685 684 683 682 682 682 683 684 684 685 686 688 689 690 692 693 695 697 698 700 702 704 705 707 709 710 712 713 715 717 718 719 720 721 722 724 726 727 729 731 732 732 733 734 735 736 737 738 739 739
708 708 709 708 708 708 707 707 707 706 706 706 706 706 706 705 704 703 702 701 700 699 698 696 696 695 694 692 691 691 691 691 691 691 690 689 688 686 685 685 685 684 684 685 686 686 687 688 689 690 692 693 695 696 698 699 701 704 705 707 709 710 711 712 713 715 716 717 719 720 721 722 724 725 727 728 730 731 732 732 733 734 735 736 736 736 737
708 707 708 708 707 707 707 707 707 707 706 707 707 707 706 705 704 703 701 700 700 700 698 697 696 695 694 694 693 693 693 693 693 693 692 691 690 689 688 689 689 688 688 689 690 690 690 691 691 691 693 695 697 699 700 701 704 706 707 709 710 712 713 713 714 716 717 719 720 720 721 723 724 725 727 728 729 730 731 731 732 733 734 734 735 735 735
707 707 707 708 707 707 707 708 708 708 708 708 708 708 707 706 705 703 702 702 702 701 700 699 698 697 696 695 695 694 694 694 694 694 693 692 692 691 691 692 693 693 693 693 693 693 693 693 693 693 695 697 699 700 702 704 706 707 709 710 711 713 714 714 715 717 719 720 721 721 721 722 723 724 726 727 728 729 730 731 731 732 732 733 733 733 734
707 707 707 707 707 708 708 709 709 710 709 709 708 708 708 707 706 704 703 704 704 703 702 701 700 699 698 697 696 696 696 695 695 694 694 695 695 694 694 695 696 696 696 696 695 695 695 695 695 696 698 699 701 703 705 706 707 708 710 711 712 713 714 714 715 716 717 718 719 719 720 721 722 723 725 727 728 728 729 730 730 730 730 731 731 732 732
707 707 707 707 707 708 708 709 710 710 710 709 708 708 708 707 706 706 705 705 704 704 703 702 700 699 699 698 697 697 696 695 695 695 696 696 696 696 696 698 699 699 698 698 698 698 698 698 698 699 700 702 704 705 706 707 708 709 709 710 711 712 712 713 714 714 715 716 717 718 719 720 722 723 724 726 726 727 727 728 728 728 729 729 730 730 731
708 708 707 707 708 708 708 709 709 709 709 709 709 708 708 708 707 706 706 705 704 703 702 702 701 700 699 699 698 698 698 697 698 698 698 698 698 697 698 700 701 701 700 700 699 699 699 700 700 701 703 704 706 707 708 708 708 708 709 710 710 711 711 712 712 713 714 715 716 717 719 720 721 722 723 725 725 726 726 726 727 727 728 728 728 728 729
708 708 708 708 708 708 708 709 709 709 709 709 709 709 709 708 708 707 706 705 704 703 702 702 702 702 701 701 701 701 701 701 701 701 700 701 701 701 701 702 702 702 701 701 700 700 700 701 702 703 705 706 707 708 708 708 708 708 708 709 710 710 711 711 711 712 713 714 715 716 718 719 720 721 722 723 723 723 723 724 725 726 726 727 727 727 728
709 709 708 709 709 709 709 709 709 709 710 710 710 709 709 708 708 707 706 705 705 704 703 703 703 703 704 704 704 704 704 704 703 703 702 702 703 704 704 704 704 703 703 702 702 701 702 703 704 705 706 707 707 708 707 707 708 708 708 709 710 710 710 711 711 712 713 714 715 716 717 718 719 720 720 721 722 722 723 724 725 726 726 726 727 727 727
710 710 710 710 710 710 710 710 710 711 711 710 709 709 709 708 708 707 706 706 705 705 705 705 705 705 706 706 706 706 706 706 705 705 703 703 704 705 706 705 705 705 704 704 703 703 704 705 706 707 707 708 708 708 708 708 708 708 709 709 710 710 710 711 711 712 713 714 715 716 717 718 718 719 719 720 721 722 723 724 725 725 726 726 726 726 726
710 711 711 711 711 711 711 712 712 712 711 709 709 709 709 708 708 707 707 707 706 706 706 707 707 708 708 708 708 707 707 707 707 707 706 705 706 707 707 707 707 706 706 705 705 705 706 706 707 707 708 708 708 708 708 708 708 708 709 709 709 710 710 711 711 712 713 714 714 715 716 717 718 718 719 720 721 722 722 723 724 724 725 725 725 725 725
711 711 711 711 712 712 712 713 712 711 710 710 710 709 709 709 708 708 708 708 707 707 707 707 708 709 710 710 709 708 708 707 707 707 707 707 707 708 708 708 708 707 707 707 706 706 706 707 707 707 708 708 708 708 708 708 708 708 708 708 709 709 709 710 711 712 712 713 714 715 716 717 717 718 718 719 720 721 721 722 722 723 723 723 723 723 723
711 711 711 712 712 712 713 712 711 710 710 711 711 710 710 709 709 708 708 708 708 707 707 707 708 709 710 710 710 709 709 709 708 707 708 708 707 707 707 708 708 708 707 707 706 706 707 707 707 707 708 708 708 707 707 707 707 707 708 708 708 709 709 710 710 711 712 713 714 715 715 716 716 717 718 718 719 719 720 720 720 720 720 720 721 721 721
712 712 712 713 712 712 712 711 710 710 711 712 711 711 711 709 708 708 708 709 708 707 706 705 706 708 709 709 708 709 710 710 709 708 708 708 707 706 706 707 707 707 706 705 705 705 705 706 706 706 706 707 707 706 706 706 707 707 707 708 708 708 709 709 710 710 711 712 712 713 714 714 715 715 716 716 717 717 718 718 719 718 718 718 719 719 719
713 713 713 713 713 713 712 711 711 711 712 712 711 712 711 709 707 708 709 709 709 708 707 706 706 707 708 708 707 708 709 710 709 708 708 707 706 706 706 705 705 705 705 704 703 703 703 704 704 705 705 705 706 705 705 706 706 707 707 708 708 708 708 709 710 710 711 711 711 711 712 713 713 713 714 715 715 715 715 716 716 717 717 717 717 717 716
714 714 714 714 714 714 714 714 713 713 713 713 713 712 712 711 709 709 710 711 710 710 709 709 709 708 708 708 708 708 708 708 708 707 707 706 705 705 704 704 704 704 703 703 702 702 701 701 702 703 703 704 704 704 705 705 705 705 706 707 707 707 707 708 708 709 709 710 710 710 710 710 711 711 712 712 712 713 713 714 714 714 715 715 715 714 714
716 716 715 715 716 716 716 716 716 715 714 714 714 713 713 713 712 711 712 713 713 712 712 712 711 710 710 710 710 709 709 708 707 707 707 706 705 704 703 702 701 701 701 701 701 700 700 699 700 700 701 701 702 702 703 704 704 704 704 705 705 705 705 706 706 706 707 707 708 708 708 708 708 709 709 709 710 710 711 711 711 712 712 712 712 712 712